Location: Canazei
(46.4667°N, 11.7667°E)
Time: 23:23:19
(UTC+00:00)

ISS - Visible Passes

Search period start: 21 September 2021 00:00
Search period end: 01 October 2021 00:00
Orbit: 419 x 423 km, 51.6° (Epoch: 21 September)

Date Brightness Start Highest point End Pass type
(mag) Time Alt. Az. Time Alt. Az. Time Alt. Az.
21 Sep -3.5 18:08:22 10° WSW 18:11:43 71° NNW 18:14:52 12° ENE visible
21 Sep -1.6 19:45:49 10° WNW 19:47:52 26° NW 19:47:52 26° NW visible
22 Sep -2.5 18:58:45 10° WNW 19:01:54 35° N 19:02:48 30° NNE visible
23 Sep -2.7 18:11:40 10° W 18:14:53 41° NNW 18:17:41 13° NE visible
23 Sep -1.2 19:49:07 10° WNW 19:50:41 22° NW 19:50:41 22° NW visible
24 Sep -2.5 19:02:07 10° WNW 19:05:12 32° N 19:05:32 31° NNE visible
25 Sep -2.4 18:15:04 10° WNW 18:18:10 33° N 18:20:22 16° NE visible
25 Sep -1.0 19:52:12 10° WNW 19:53:21 19° NW 19:53:21 19° NW visible
26 Sep -2.5 17:27:59 10° WNW 17:31:07 35° N 17:34:17 10° ENE visible
26 Sep -2.6 19:05:17 10° WNW 19:08:10 37° N 19:08:10 37° N visible
27 Sep -2.6 18:18:18 10° WNW 18:21:26 34° N 18:22:59 22° NE visible
27 Sep -0.7 19:55:11 10° WNW 19:55:58 16° WNW 19:55:58 16° WNW visible
28 Sep -2.5 17:31:18 10° WNW 17:34:23 32° N 17:37:28 10° ENE visible
28 Sep -2.7 19:08:16 10° WNW 19:10:48 44° NW 19:10:48 44° NW visible
29 Sep -3.2 18:21:21 10° WNW 18:24:38 47° NNE 18:25:39 34° ENE visible
29 Sep -0.4 19:58:16 10° WNW 19:58:39 12° WNW 19:58:39 12° WNW visible
30 Sep -2.9 17:34:25 10° WNW 17:37:37 39° NNE 17:40:32 12° E visible
30 Sep -2.3 19:11:16 10° WNW 19:13:32 38° W 19:13:32 38° W visible
